Location: Newark
(7.0858°N, 171.3717°E)
Time: 22:42:22
(UTC+00:00)

Vanguard 2 - Pass Details

Date: 03 December 2020
Orbit: 553 x 2937 km, 32.9° (Epoch: 19 January)

Event Time Altitude Azimuth Distance (km) Brightness Sun altitude
Rises 03:44:08 0° 314° (NW) 2,747 10.5 33.0°
Reaches altitude 10° 03:46:12 10° 320° (NW) 1,929 9.8 32.6°
Maximum altitude 03:50:20 48° 36° (NE) 925 7.9 31.7°
Drops below altitude 10° 03:56:12 10° 110° (ESE) 2,727 10.1 30.5°
Sets 03:59:37 0° 115° (ESE) 4,042 10.9 29.7°
